Flag for Canada Weather past 2 weeks in Brandon, Manitoba, Canada

Now
75 °F

Passing clouds.


Feels Like: 78 °F
Forecast: 55 / 67 °F
Wind: 15 mph from Northwest

Location: Brandon

Current Time: Jul 25, 2014 at 8:25:09 PM

Latest Report: Jul 25, 2014 at 7:00 PM


Visibility: 15 mi

Pressure: 29.72 "Hg

Humidity: 44%

Dew point: 52 °F

Location of BrandonLocation

Historic Weather in Brandon — Graph

°F

Brandon temperature yesterday

Maximum temperature yesterday: 75 °F (at 6:00 PM)
Minimum temperature yesterday: 57 °F (at 12:00 AM)
Average temperature yesterday: 65 °F

Past Weeks' High & Low Weather Summary

 TemperatureHumidityPressure
High82 °F (Jul 20, 2:00 PM)100% (Jul 11, 3:00 AM)30.37 "Hg (Jul 11, 3:00 AM)
Low48 °F (Jul 13, 5:00 AM)40% (Jul 12, 7:00 PM)29.52 "Hg (Jul 20, 8:00 AM)
Average66 °F73%29.94 "Hg
* Reported Jul 10 7:00 PM — Jul 25 7:00 PM, Brandon, Weather by CustomWeather, © 2014

Note: Actual official high and low records may vary slightly from our data, if they occured in-between our weather recording intervals... More about our weather records

Advertising

Brandon weather history for previous 24 hours

 ConditionsComfort  
Time TempWeatherWind HumidityBarometerVisibility
7:00 PM
Jul 25
75 °FPassing clouds.15 mph44%29.72 "Hg15 mi
6:00 PM75 °FPassing clouds.18 mph44%29.72 "Hg15 mi
5:00 PM77 °FPassing clouds.21 mph42%29.72 "Hg15 mi
4:00 PM77 °FPassing clouds.17 mph42%29.72 "Hg15 mi
3:00 PM75 °FPassing clouds.22 mph41%29.72 "Hg15 mi
2:00 PM75 °FPassing clouds.21 mph44%29.72 "Hg15 mi
1:00 PM73 °FPassing clouds.14 mph47%29.74 "Hg15 mi
12:00 PM73 °FPassing clouds.20 mph41%29.76 "Hg15 mi
11:00 AM73 °FPassing clouds.20 mph44%29.76 "Hg15 mi
10:00 AM70 °FPassing clouds.16 mph60%29.76 "Hg15 mi
9:00 AM68 °FPassing clouds.18 mph78%29.75 "Hg15 mi
8:00 AM66 °FBroken clouds.9 mph94%29.73 "Hg10 mi
7:00 AM63 °FOvercast.3 mph100%29.72 "Hg10 mi
6:00 AM63 °FMostly cloudy.No wind94%29.72 "Hg10 mi
5:00 AM59 °FPartly cloudy.No wind100%29.72 "Hg12 mi
4:00 AM61 °FPassing clouds.3 mph100%29.72 "Hg12 mi
3:00 AM63 °FPassing clouds.6 mph100%29.72 "Hg15 mi
2:00 AM66 °FOvercast.10 mph88%29.73 "Hg15 mi
1:45 AM64 °FMostly cloudy.9 mph94%29.73 "Hg15 mi
1:00 AM66 °FSprinkles. Mostly cloudy.9 mph88%29.74 "Hg15 mi
12:00 AM66 °FSprinkles. Overcast.8 mph88%29.80 "Hg15 mi
11:00 PM
Jul 24
68 °FMostly cloudy.7 mph83%29.80 "Hg15 mi
10:00 PM70 °FMostly cloudy.9 mph78%29.80 "Hg15 mi
9:00 PM70 °FScattered clouds.10 mph78%29.74 "Hg15 mi
8:00 PM73 °FBroken clouds.9 mph74%29.75 "Hg15 mi
Weather by CustomWeather, © 2014

See weather overviewHow to use our weather pages